Haleyville, AL

9:04 AM CDT on May 24, 2018 (GMT -0500)
Haleyville

Weather History for K1M4 - February, 2014

Change the Weather History Date:

Tuesday, February 18, 2014

  Actual Average (KJFX) Record (KJFX)
Temperature  
Mean Temperature 51 °F -  
Max Temperature 68 °F 57 °F 79 °F (1976)
Min Temperature 34 °F 34 °F 11 °F (1980)
Degree Days  
Heating Degree Days 14    
Growing Degree Days 1 (Base 50)    
Moisture  
Dew Point 46 °F    
Average Humidity 90    
Maximum Humidity 100    
Minimum Humidity 43    
Precipitation  
Precipitation 0.01 in - - ()
Sea Level Pressure  
Sea Level Pressure 30.15 in    
Wind  
Wind Speed 4 mph (ESE)    
Max Wind Speed 15 mph    
Max Gust Speed 23 mph    
Visibility 5 miles    
Events Fog , Rain    
Averages and records for this station are not official NWS values.
T = Trace of Precipitation, MM = Missing Value Source: NWS Daily Summary

Daily Weather History Graph

Daily Weather History Graph

Search for Another Location

Airport or City:

Astronomy

Feb. 18, 2014 Rise Set
Actual Time 6:32 AM CST 5:36 PM CST
Civil Twilight 6:06 AM CST 6:02 PM CST
Nautical Twilight 5:37 AM CST 6:31 PM CST
Astronomical Twilight 5:08 AM CST 7:00 PM CST
Moon 9:17 PM CST (2/18) 8:15 AM CST (2/18)
Length of Visible Light 11h 55m
Length of Day
11h 04m
Waning Gibbous, 87% of the Moon is Illuminated
Feb 18
Waning Gibbous
Feb 22
Last Quarter
Mar 1
New
Mar 8
First Quarter
Mar 16
Full

Hourly Weather History & Observations

Time (CST) Temp. Windchill Dew Point Humidity Pressure Visibility Wind Dir Wind Speed Gust Speed Precip Events Conditions
12:30 AM 46.4 °F - 46.4 °F 100% 30.17 in 2.5 mi Calm Calm - N/A   Clear
12:37 AM 44.6 °F 43.1 °F 44.6 °F 100% 30.17 in 1.0 mi NE 3.5 mph - N/A   Clear
12:39 AM 44.6 °F - 44.6 °F 100% 30.17 in 0.5 mi Calm Calm - N/A Fog Fog
12:47 AM 44.6 °F 43.1 °F 44.6 °F 100% 30.17 in 0.2 mi NE 3.5 mph - N/A Fog Fog
12:56 AM 43.9 °F 42.3 °F 43.9 °F 100% 30.20 in 0.5 mi NNE 3.5 mph - N/A Fog Fog
12:58 AM 44.6 °F 43.1 °F 44.6 °F 100% 30.17 in 1.0 mi NE 3.5 mph - N/A   Clear
1:05 AM 44.6 °F 42.2 °F 44.6 °F 100% 30.17 in 1.5 mi NNE 4.6 mph - N/A   Clear
1:17 AM 42.8 °F 41.1 °F 42.8 °F 100% 30.17 in 1.0 mi ENE 3.5 mph - N/A   Clear
1:23 AM 41.0 °F - 41.0 °F 100% 30.17 in 0.5 mi Calm Calm - N/A Fog Fog
1:44 AM 41.0 °F - 41.0 °F 100% 30.17 in 0.2 mi Calm Calm - N/A Fog Fog
1:56 AM 39.9 °F 37.8 °F 39.9 °F 100% 30.21 in 0.8 mi NNE 3.5 mph - N/A   Clear
2:11 AM 39.2 °F - 39.2 °F 100% 30.17 in 0.2 mi Calm Calm - N/A Fog Fog
2:56 AM 36.9 °F - 36.9 °F 100% 30.20 in 0.2 mi Calm Calm - N/A Fog Fog
3:07 AM 37.4 °F - 37.4 °F 100% 30.17 in 0.5 mi Calm Calm - N/A Fog Fog
3:20 AM 37.4 °F - 37.4 °F 100% 30.17 in 1.0 mi Calm Calm - N/A   Clear
3:23 AM 37.4 °F - 37.4 °F 100% 30.18 in 1.5 mi Calm Calm - N/A   Clear
3:35 AM 37.4 °F 34.9 °F 37.4 °F 100% 30.18 in 1.0 mi NE 3.5 mph - N/A   Clear
3:41 AM 35.6 °F 32.8 °F 35.6 °F 100% 30.18 in 0.5 mi NE 3.5 mph - N/A Fog Fog
3:47 AM 35.6 °F 32.8 °F 35.6 °F 100% 30.18 in 1.0 mi ENE 3.5 mph - N/A   Clear
3:49 AM 35.6 °F - 35.6 °F 100% 30.18 in 1.5 mi Calm Calm - N/A   Clear
3:56 AM 34.9 °F 30.8 °F 34.9 °F 100% 30.21 in 2.5 mi NE 4.6 mph - N/A   Clear
4:04 AM 35.6 °F 32.8 °F 35.6 °F 100% 30.18 in 6.0 mi ENE 3.5 mph - N/A   Clear
4:56 AM 36.0 °F 32.1 °F 36.0 °F 100% 30.21 in 10.0 mi ENE 4.6 mph - N/A   Clear
5:56 AM 36.0 °F 32.1 °F 36.0 °F 100% 30.21 in 10.0 mi ENE 4.6 mph - N/A   Clear
6:56 AM 34.9 °F 32.0 °F 34.9 °F 100% 30.23 in 10.0 mi East 3.5 mph - N/A   Clear
7:56 AM 45.0 °F 41.2 °F 36.9 °F 73% 30.24 in 10.0 mi East 6.9 mph - N/A   Clear
8:56 AM 50.0 °F - 36.9 °F 61% 30.25 in 10.0 mi ESE 8.1 mph - N/A   Clear
9:56 AM 55.9 °F - 38.8 °F 53% 30.24 in 10.0 mi East 4.6 mph - N/A   Clear
10:56 AM 59.9 °F - 41.0 °F 50% 30.23 in 10.0 mi Variable 6.9 mph - N/A   Scattered Clouds
11:56 AM 63.9 °F - 41.0 °F 43% 30.20 in 10.0 mi SE 6.9 mph - N/A   Partly Cloudy
12:56 PM 65.8 °F - 45.9 °F 48% 30.16 in 10.0 mi SSE 11.5 mph 17.3 mph N/A   Partly Cloudy
1:56 PM 68.9 °F - 48.9 °F 49% 30.13 in 10.0 mi South 13.8 mph 18.4 mph N/A   Partly Cloudy
2:56 PM 66.9 °F - 50.9 °F 56% 30.11 in 10.0 mi SSE 11.5 mph - N/A   Scattered Clouds
3:56 PM 64.9 °F - 52.0 °F 63% 30.10 in 10.0 mi South 12.7 mph 17.3 mph N/A   Mostly Cloudy
4:56 PM 63.9 °F - 54.0 °F 70% 30.09 in 10.0 mi South 12.7 mph - N/A   Mostly Cloudy
5:35 PM 60.8 °F - 57.2 °F 88% 30.04 in 9.0 mi South 10.4 mph - N/A   Mostly Cloudy
5:56 PM 61.0 °F - 56.8 °F 86% 30.08 in 10.0 mi South 10.4 mph - N/A   Overcast
6:20 PM 60.8 °F - 57.2 °F 88% 30.03 in 3.0 mi South 9.2 mph - 0.01 in Rain Rain
6:34 PM 60.8 °F - 59.0 °F 94% 30.03 in 5.0 mi South 8.1 mph - 0.01 in Rain Light Rain
6:56 PM 59.0 °F - 59.0 °F 100% 30.06 in 5.0 mi South 10.4 mph - 0.01 in   Overcast
7:28 PM 60.8 °F - 60.8 °F 100% 30.02 in 4.0 mi SSW 11.5 mph - N/A   Overcast
7:56 PM 59.9 °F - 59.9 °F 100% 30.06 in 4.0 mi SSW 11.5 mph - N/A   Overcast
8:56 PM 59.9 °F - 59.9 °F 100% 30.06 in 3.0 mi SSW 11.5 mph - N/A   Overcast
9:25 PM 60.8 °F - 60.8 °F 100% 30.02 in 5.0 mi SSW 11.5 mph 20.7 mph N/A   Overcast
9:56 PM 59.9 °F - 59.9 °F 100% 30.05 in 6.0 mi SSW 15.0 mph 23.0 mph N/A   Overcast
10:56 PM 59.9 °F - 59.9 °F 100% 30.06 in 6.0 mi SSW 10.4 mph - N/A   Mostly Cloudy
11:56 PM 59.9 °F - 59.0 °F 97% 30.06 in 6.0 mi SW 11.5 mph - N/A   Scattered Clouds